Time,TemperatureF,DewpointF,PressureIn,WindDirection,WindDirectionDegrees,WindSpeedMPH,WindSpeedGustMPH,Humidity,HourlyPrecipIn,Conditions,Clouds,dailyrainin,SoftwareType,DateUTC
2013-07-24 00:11:00,67.0,63.0,29.92,ENE,78,0.0,1.0,86,0.00,,,0.05,,2013-07-24 04:11:00,
2013-07-24 00:22:00,67.0,63.0,29.92,ENE,78,0.0,0.0,87,0.00,,,0.05,,2013-07-24 04:22:00,
2013-07-24 00:32:00,67.0,63.0,29.92,ENE,78,0.0,0.0,87,0.00,,,0.05,,2013-07-24 04:32:00,
2013-07-24 01:02:00,66.0,62.0,29.93,ENE,78,0.0,1.0,87,0.00,,,0.05,,2013-07-24 05:02:00,
2013-07-24 01:11:00,66.0,62.0,29.93,SSE,153,2.0,5.0,88,0.00,,,0.05,,2013-07-24 05:11:00,
2013-07-24 01:52:00,67.0,64.0,29.92,SSW,193,0.0,3.0,89,0.00,,,0.05,,2013-07-24 05:52:00,
2013-07-24 02:01:00,67.0,63.0,29.91,East,100,1.0,6.0,86,0.00,,,0.05,,2013-07-24 06:01:00,
2013-07-24 02:12:00,67.0,63.0,29.91,East,100,1.0,6.0,86,0.00,,,0.05,,2013-07-24 06:12:00,
2013-07-24 02:34:00,67.0,63.0,29.91,WSW,238,2.0,10.0,86,0.00,,,0.05,,2013-07-24 06:34:00,
2013-07-24 02:53:00,69.0,64.0,29.89,SW,220,0.0,7.0,84,0.00,,,0.05,,2013-07-24 06:53:00,
2013-07-24 03:02:00,68.0,63.0,29.90,SW,221,1.0,4.0,85,0.00,,,0.05,,2013-07-24 07:02:00,
2013-07-24 03:12:00,67.0,63.0,29.89,SSW,199,1.0,7.0,86,0.00,,,0.05,,2013-07-24 07:12:00,
2013-07-24 03:22:00,67.0,63.0,29.89,East,79,3.0,6.0,87,0.00,,,0.05,,2013-07-24 07:22:00,
2013-07-24 03:32:00,67.0,63.0,29.88,SE,146,0.0,3.0,87,0.00,,,0.05,,2013-07-24 07:32:00,
2013-07-24 03:52:00,66.0,62.0,29.88,SW,235,0.0,6.0,88,0.00,,,0.05,,2013-07-24 07:52:00,
2013-07-24 04:02:00,66.0,63.0,29.88,SW,235,0.0,2.0,89,0.00,,,0.05,,2013-07-24 08:02:00,
2013-07-24 04:12:00,66.0,63.0,29.88,South,181,0.0,4.0,89,0.00,,,0.05,,2013-07-24 08:12:00,
2013-07-24 04:22:00,66.0,62.0,29.88,South,181,0.0,2.0,88,0.00,,,0.05,,2013-07-24 08:22:00,
2013-07-24 04:32:00,66.0,63.0,29.88,ESE,107,0.0,5.0,90,0.00,,,0.05,,2013-07-24 08:32:00,
2013-07-24 04:43:00,66.0,63.0,29.88,ESE,107,1.0,2.0,90,0.00,,,0.05,,2013-07-24 08:43:00,
2013-07-24 04:52:00,66.0,63.0,29.87,SE,141,0.0,4.0,90,0.00,,,0.05,,2013-07-24 08:52:00,
2013-07-24 05:02:00,66.0,63.0,29.87,ENE,74,0.0,5.0,90,0.00,,,0.05,,2013-07-24 09:02:00,
2013-07-24 05:12:00,66.0,63.0,29.87,ENE,74,0.0,5.0,90,0.00,,,0.05,,2013-07-24 09:12:00,
2013-07-24 05:22:00,66.0,63.0,29.87,SSE,152,0.0,4.0,89,0.00,,,0.05,,2013-07-24 09:22:00,
2013-07-24 05:32:00,66.0,63.0,29.87,SE,131,1.0,3.0,90,0.00,,,0.05,,2013-07-24 09:32:00,
2013-07-24 05:43:00,67.0,64.0,29.87,SSE,149,0.0,3.0,89,0.00,,,0.05,,2013-07-24 09:43:00,
2013-07-24 05:53:00,67.0,64.0,29.87,SSE,149,0.0,3.0,89,0.00,,,0.05,,2013-07-24 09:53:00,
2013-07-24 06:02:00,67.0,63.0,29.87,SSE,149,0.0,4.0,88,0.00,,,0.05,,2013-07-24 10:02:00,
2013-07-24 06:12:00,67.0,63.0,29.87,SSE,149,0.0,4.0,88,0.00,,,0.05,,2013-07-24 10:12:00,
2013-07-24 06:22:00,67.0,64.0,29.88,SSE,149,1.0,2.0,89,0.00,,,0.05,,2013-07-24 10:22:00,
2013-07-24 06:33:00,67.0,63.0,29.89,SSE,150,0.0,1.0,88,0.00,,,0.05,,2013-07-24 10:33:00,
2013-07-24 06:43:00,66.0,63.0,29.89,SSE,149,0.0,0.0,89,0.00,,,0.04,,2013-07-24 10:43:00,
2013-07-24 07:02:00,66.0,63.0,29.88,SSE,150,0.0,3.0,91,0.00,,,0.04,,2013-07-24 11:02:00,
2013-07-24 07:43:00,67.0,64.0,29.90,SE,133,0.0,0.0,91,0.00,,,0.04,,2013-07-24 11:43:00,
2013-07-24 07:52:00,67.0,64.0,29.90,SE,133,0.0,0.0,91,0.00,,,0.04,,2013-07-24 11:52:00,
2013-07-24 08:02:00,67.0,64.0,29.91,SE,133,0.0,1.0,91,0.00,,,0.04,,2013-07-24 12:02:00,
2013-07-24 08:12:00,67.0,65.0,29.91,SE,133,0.0,1.0,92,0.00,,,0.04,,2013-07-24 12:12:00,
2013-07-24 08:22:00,67.0,65.0,29.91,SE,133,0.0,1.0,92,0.00,,,0.04,,2013-07-24 12:22:00,
2013-07-24 08:32:00,67.0,65.0,29.92,ENE,73,1.0,3.0,93,0.00,,,0.04,,2013-07-24 12:32:00,
2013-07-24 08:42:00,68.0,66.0,29.91,South,186,0.0,3.0,92,0.00,,,0.04,,2013-07-24 12:42:00,
2013-07-24 09:02:00,68.0,65.0,29.91,ESE,114,1.0,3.0,91,0.00,,,0.04,,2013-07-24 13:02:00,
2013-07-24 09:12:00,68.0,65.0,29.91,North,3,0.0,7.0,89,0.00,,,0.04,,2013-07-24 13:12:00,
2013-07-24 09:22:00,69.0,65.0,29.92,East,90,0.0,6.0,86,0.00,,,0.04,,2013-07-24 13:22:00,
2013-07-24 09:32:00,70.0,65.0,29.92,SW,215,0.0,4.0,84,0.00,,,0.04,,2013-07-24 13:32:00,
2013-07-24 09:43:00,70.0,65.0,29.93,South,186,2.0,4.0,85,0.00,,,0.03,,2013-07-24 13:43:00,
2013-07-24 09:53:00,70.0,65.0,29.93,South,186,2.0,4.0,85,0.00,,,0.03,,2013-07-24 13:53:00,
2013-07-24 10:02:00,71.0,66.0,29.93,SW,235,0.0,2.0,83,0.00,,,0.03,,2013-07-24 14:02:00,
2013-07-24 10:12:00,71.0,65.0,29.93,NNW,327,0.0,4.0,80,0.00,,,0.03,,2013-07-24 14:12:00,
2013-07-24 10:22:00,71.0,66.0,29.92,East,93,0.0,6.0,83,0.00,,,0.03,,2013-07-24 14:22:00,
2013-07-24 10:32:00,72.0,66.0,29.92,SSW,209,1.0,3.0,81,0.00,,,0.00,,2013-07-24 14:32:00,
2013-07-24 10:43:00,72.0,65.0,29.92,SW,214,0.0,3.0,78,0.00,,,0.00,,2013-07-24 14:43:00,
2013-07-24 10:55:00,72.0,66.0,29.92,SW,214,0.0,2.0,82,0.00,,,0.00,,2013-07-24 14:55:00,
2013-07-24 11:02:00,73.0,66.0,29.92,SW,218,1.0,5.0,80,0.00,,,0.00,,2013-07-24 15:02:00,
2013-07-24 11:22:00,74.0,67.0,29.93,SW,226,0.0,2.0,80,0.00,,,0.00,,2013-07-24 15:22:00,
2013-07-24 11:33:00,74.0,65.0,29.93,NE,46,1.0,3.0,73,0.00,,,0.00,,2013-07-24 15:33:00,
2013-07-24 11:43:00,74.0,66.0,29.93,NE,46,0.0,1.0,77,0.00,,,0.00,,2013-07-24 15:43:00,
2013-07-24 11:52:00,74.0,66.0,29.93,NE,46,0.0,1.0,77,0.00,,,0.00,,2013-07-24 15:52:00,
2013-07-24 12:02:00,74.0,67.0,29.93,NE,46,0.0,1.0,79,0.00,,,0.00,,2013-07-24 16:02:00,
2013-07-24 12:12:00,74.0,67.0,29.93,NE,46,0.0,1.0,79,0.00,,,0.00,,2013-07-24 16:12:00,
2013-07-24 12:22:00,74.0,65.0,29.92,North,0,0.0,4.0,73,0.00,,,0.00,,2013-07-24 16:22:00,
2013-07-24 12:33:00,75.0,66.0,29.92,SW,226,3.0,7.0,74,0.00,,,0.00,,2013-07-24 16:33:00,
2013-07-24 12:43:00,75.0,66.0,29.92,SSW,213,0.0,3.0,73,0.00,,,0.00,,2013-07-24 16:43:00,
2013-07-24 12:53:00,76.0,65.0,29.93,West,261,0.0,4.0,70,0.00,,,0.00,,2013-07-24 16:53:00,
2013-07-24 13:02:00,76.0,67.0,29.92,West,262,0.0,3.0,74,0.00,,,0.00,,2013-07-24 17:02:00,
2013-07-24 13:12:00,77.0,68.0,29.92,West,262,1.0,3.0,74,0.00,,,0.00,,2013-07-24 17:12:00,
2013-07-24 13:22:00,77.0,69.0,29.93,West,262,1.0,3.0,77,0.00,,,0.00,,2013-07-24 17:22:00,
2013-07-24 13:33:00,77.0,68.0,29.93,West,262,1.0,2.0,73,0.00,,,0.00,,2013-07-24 17:33:00,
2013-07-24 13:53:00,78.0,69.0,29.92,West,261,1.0,4.0,74,0.00,,,0.00,,2013-07-24 17:53:00,
2013-07-24 14:02:00,78.0,68.0,29.92,West,261,1.0,3.0,72,0.00,,,0.00,,2013-07-24 18:02:00,
2013-07-24 14:12:00,79.0,68.0,29.92,WSW,238,0.0,3.0,69,0.00,,,0.00,,2013-07-24 18:12:00,
2013-07-24 14:22:00,79.0,68.0,29.91,WSW,238,1.0,4.0,68,0.00,,,0.00,,2013-07-24 18:22:00,
2013-07-24 14:33:00,79.0,66.0,29.91,NNE,13,3.0,6.0,64,0.00,,,0.00,,2013-07-24 18:33:00,
2013-07-24 14:43:00,80.0,68.0,29.91,SW,215,1.0,5.0,67,0.00,,,0.00,,2013-07-24 18:43:00,
2013-07-24 14:52:00,80.0,68.0,29.91,SW,215,1.0,5.0,67,0.00,,,0.00,,2013-07-24 18:52:00,
2013-07-24 15:03:00,80.0,66.0,29.91,SSW,207,1.0,4.0,62,0.00,,,0.00,,2013-07-24 19:03:00,
2013-07-24 15:12:00,81.0,67.0,29.90,SW,224,1.0,4.0,63,0.00,,,0.00,,2013-07-24 19:12:00,
2013-07-24 15:22:00,81.0,66.0,29.90,SW,220,4.0,7.0,60,0.00,,,0.00,,2013-07-24 19:22:00,
2013-07-24 15:32:00,82.0,65.0,29.90,NW,313,1.0,5.0,56,0.00,,,0.00,,2013-07-24 19:32:00,
2013-07-24 15:43:00,83.0,68.0,29.90,WSW,237,1.0,3.0,60,0.00,,,0.00,,2013-07-24 19:43:00,
2013-07-24 15:53:00,84.0,67.0,29.90,WSW,238,1.0,3.0,57,0.00,,,0.00,,2013-07-24 19:53:00,
2013-07-24 16:13:00,84.0,67.0,29.90,West,260,1.0,5.0,56,0.00,,,0.00,,2013-07-24 20:13:00,
2013-07-24 16:23:00,83.0,66.0,29.90,SW,234,1.0,5.0,57,0.00,,,0.00,,2013-07-24 20:23:00,
2013-07-24 16:32:00,82.0,64.0,29.89,SW,225,0.0,9.0,55,0.00,,,0.00,,2013-07-24 20:32:00,
2013-07-24 16:43:00,82.0,64.0,29.89,North,3,1.0,3.0,55,0.00,,,0.00,,2013-07-24 20:43:00,
2013-07-24 16:52:00,82.0,66.0,29.88,North,3,0.0,2.0,58,0.00,,,0.00,,2013-07-24 20:52:00,
2013-07-24 17:12:00,81.0,67.0,29.88,SSW,213,0.0,4.0,62,0.00,,,0.00,,2013-07-24 21:12:00,
2013-07-24 17:32:00,82.0,65.0,29.88,SW,217,2.0,8.0,56,0.00,,,0.00,,2013-07-24 21:32:00,
2013-07-24 17:44:00,82.0,66.0,29.88,WNW,290,0.0,1.0,59,0.00,,,0.00,,2013-07-24 21:44:00,
2013-07-24 17:52:00,82.0,66.0,29.88,WNW,288,0.0,2.0,59,0.00,,,0.00,,2013-07-24 21:52:00,
2013-07-24 18:02:00,83.0,65.0,29.88,North,10,0.0,4.0,55,0.00,,,0.00,,2013-07-24 22:02:00,
2013-07-24 19:02:00,79.0,65.0,29.88,West,273,0.0,3.0,62,0.00,,,0.00,,2013-07-24 23:02:00,
2013-07-24 19:32:00,76.0,64.0,29.90,SW,221,1.0,4.0,66,0.00,,,0.00,,2013-07-24 23:32:00,
2013-07-24 19:43:00,76.0,63.0,29.90,ENE,58,0.0,8.0,64,0.00,,,0.00,,2013-07-24 23:43:00,
2013-07-24 19:52:00,76.0,64.0,29.91,NNE,20,0.0,6.0,66,0.00,,,0.00,,2013-07-24 23:52:00,
2013-07-24 20:02:00,76.0,64.0,29.91,NNE,20,0.0,6.0,66,0.00,,,0.00,,2013-07-25 00:02:00,
2013-07-24 20:33:00,74.0,64.0,29.91,ENE,62,0.0,4.0,70,0.00,,,0.00,,2013-07-25 00:33:00,
2013-07-24 20:43:00,73.0,63.0,29.92,ENE,62,0.0,1.0,71,0.00,,,0.00,,2013-07-25 00:43:00,
2013-07-24 21:03:00,72.0,64.0,29.92,ESE,112,0.0,1.0,75,0.00,,,0.00,,2013-07-25 01:03:00,
2013-07-24 21:12:00,72.0,63.0,29.92,ESE,112,0.0,1.0,74,0.00,,,0.00,,2013-07-25 01:12:00,
2013-07-24 21:32:00,71.0,63.0,29.92,ESE,111,0.0,2.0,76,0.00,,,0.00,,2013-07-25 01:32:00,
2013-07-24 21:43:00,71.0,63.0,29.93,ESE,111,0.0,2.0,77,0.00,,,0.00,,2013-07-25 01:43:00,
2013-07-24 22:12:00,70.0,64.0,29.93,SW,220,0.0,0.0,80,0.00,,,0.00,,2013-07-25 02:12:00,
2013-07-24 22:22:00,69.0,63.0,29.93,SW,220,0.0,1.0,80,0.00,,,0.00,,2013-07-25 02:22:00,
2013-07-24 22:43:00,69.0,63.0,29.94,SW,220,0.0,1.0,81,0.00,,,0.00,,2013-07-25 02:43:00,
2013-07-24 23:02:00,69.0,63.0,29.93,SW,220,0.0,1.0,82,0.00,,,0.00,,2013-07-25 03:02:00,
2013-07-24 23:16:00,68.0,62.0,29.94,SW,220,0.0,1.0,82,0.00,,,0.00,,2013-07-25 03:16:00,
2013-07-24 23:24:00,68.0,63.0,29.94,SW,220,0.0,1.0,83,0.00,,,0.00,,2013-07-25 03:24:00,
2013-07-24 23:38:00,68.0,63.0,29.94,SE,127,0.0,1.0,83,0.00,,,0.00,,2013-07-25 03:38:00,
2013-07-24 23:44:00,68.0,63.0,29.94,SE,128,0.0,2.0,84,0.00,,,0.00,,2013-07-25 03:44:00,